This demonstration page uses our WeatherBlox Daily Observations layout. Learn more.

Left ArrowRight Arrow

34.74481, -87.66753

Hourly Observations for October 5, 2019

Temp ( °F °C ) Dew Point ( °F °C ) Humidity (%) Winds ( mph kmh ) Pressure ( in mb ) Visibility ( mi km ) Precip ( " mm )
12:53 am 00:53 Clear 71 21.7 50 10 47 47 ENE 6 9 30.04 1017 10 16 0.00 0.00
1:53 am 01:53 Clear 70 21.1 49 9.4 47 47 NE 7 11 30.03 1017 10 16 0.00 0.00
2:53 am 02:53 Clear 68 20 48 8.9 49 49 ENE 3 6 30.01 1016 10 16 0.00 0.00
3:53 am 03:53 Clear 62 16.7 51 10.6 67 67 Calm 30.01 1016 10 16 0.00 0.00
4:53 am 04:53 Clear 64 17.8 50 10 60 60 Calm 30.01 1016 10 16 0.00 0.00
5:53 am 05:53 Clear 62 16.7 50 10 65 65 Calm 30.02 1017 10 16 0.00 0.00
6:53 am 06:53 Sunny 61 16.1 52 11.1 72 72 Calm 30.02 1017 10 16 0.00 0.00
7:53 am 07:53 Sunny 67 19.4 50 10 55 55 NE 6 9 30.04 1017 10 16 0.00 0.00
8:53 am 08:53 Sunny 71 21.7 51 10.6 49 49 E 3 6 30.04 1017 10 16 0.00 0.00
9:53 am 09:53 Sunny 78 25.6 53 11.7 42 42 E 5 7 30.03 1017 10 16 0.00 0.00
10:53 am 10:53 Sunny 84 28.9 55 12.8 37 37 VRB 3 6 30.01 1016 10 16 0.00 0.00
11:53 am 11:53 Sunny 88 31.1 57 13.9 35 35 Calm 30.01 1016 10 16 0.00 0.00
12:53 pm 12:53 Sunny 93 33.9 59 15 32 32 VRB 5 7 29.98 1015 10 16 0.00 0.00
1:53 pm 13:53 Sunny 94 34.4 58 14.4 30 30 SW 6 9 29.94 1014 10 16 0.00 0.00
2:53 pm 14:53 Sunny 95 35 59 15 30 30 NW 6 9 29.93 1014 10 16 0.00 0.00
3:53 pm 15:53 Sunny 96 35.6 59 15 29 29 NW 8 13 29.91 1013 10 16 0.00 0.00
4:53 pm 16:53 Sunny 95 35 59 15 30 30 NW 8 13 29.91 1013 10 16 0.00 0.00
5:53 pm 17:53 Sunny 92 33.3 60 15.6 34 34 NW 7 11 29.92 1013 10 16 0.00 0.00
6:53 pm 18:53 Clear 86 30 61 16.1 43 43 Calm 29.93 1014 10 16 0.00 0.00
7:53 pm 19:53 Cloudy 85 29.4 61 16.1 45 45 S 10 17 29.98 1015 10 16 0.00 0.00
8:53 pm 20:53 Mostly Clear 81 27.2 62 16.7 53 53 S 7 11 30.01 1016 10 16 0.00 0.00
9:53 pm 21:53 Clear 76 24.4 63 17.2 64 64 ESE 6 9 30.02 1017 10 16 0.00 0.00
10:53 pm 22:53 Clear 76 24.4 65 18.3 69 69 SE 10 17 30.03 1017 10 16 0.00 0.00
11:53 pm 23:53 Clear 75 23.9 65 18.3 71 71 ESE 8 13 30.03 1017 10 16 0.00 0.00

Powered by AerisWeather